Wind_Speed
28 27 26 24 22 21 20 19 18 17 16 15 14 14 13 12 12 12 10 7 5 3 2 2 3 3 4 4 4 2 1 1 0 1 2 2 3 3 4 5 6 8
24 23 23 23 22 20 19 19 18 17 17 15 14 13 13 12 12 11 9 7 5 5 3 3 3 3 3 5 4 3 4 4 4 4 4 5 4 3 3 4 5 6
22 23 23 23 23 21 20 18 17 18 17 16 15 14 13 13 12 10 9 8 7 6 5 5 5 4 4 4 4 4 7 8 8 8 7 6 6 6 6 6 7 8
23 23 23 23 22 21 19 18 18 18 18 17 16 15 13 12 11 11 10 9 8 7 7 6 6 5 5 5 5 6 7 8 8 7 6 6 6 6 7 8 8 9
24 23 22 22 21 20 20 19 19 19 19 18 16 14 13 13 12 12 11 11 10 10 9 8 7 7 7 7 8 8 9 8 8 8 8 8 9 8 9 9 10 11
24 22 22 21 21 21 20 20 20 20 19 17 16 15 14 14 15 15 15 15 14 14 13 13 12 11 10 9 10 10 10 10 10 10 10 10 10 10 10 10 11 12
22 22 22 22 22 21 21 21 20 20 18 17 17 16 16 17 18 18 18 18 18 17 16 15 14 13 12 11 11 10 10 10 10 9 10 10 10 10 10 11 11 12
22 23 23 23 22 21 21 21 20 19 19 19 19 19 19 20 20 20 20 18 18 17 16 15 14 13 12 11 10 10 9 9 9 9 9 10 10 11 11 12 13 14
24 24 23 22 22 22 22 22 21 21 21 22 23 23 22 22 21 21 20 18 18 17 16 15 14 13 12 10 10 9 8 8 8 8 10 10 11 12 13 14 15 16
25 24 24 23 24 24 24 24 23 23 24 24 25 25 23 23 21 20 19 18 17 16 15 14 13 12 11 10 9 8 7 7 8 9 10 11 12 13 14 15 16 17
26 25 25 25 26 26 26 26 26 26 26 26 26 25 24 23 21 20 18 17 16 15 14 13 12 11 10 9 8 7 7 7 8 9 10 11 12 12 13 14 15 16
27 27 27 28 28 28 28 28 28 28 27 26 25 24 23 22 21 19 17 16 16 15 13 12 11 10 8 8 7 6 6 6 7 8 9 11 11 12 13 14 15 16
29 29 29 30 30 30 30 30 29 28 27 26 24 23 23 21 20 18 17 16 15 14 13 11 10 9 7 7 6 5 5 6 7 8 9 10 11 12 13 14 16 16
31 31 31 32 32 31 31 30 29 27 26 26 24 22 22 20 19 18 17 16 15 13 12 10 9 8 6 5 5 4 5 6 8 9 10 11 12 13 14 15 16 17
32 33 33 33 32 32 30 29 28 27 26 25 23 22 21 20 19 18 17 16 14 12 11 10 8 7 5 4 4 4 5 7 9 10 12 13 14 14 15 16 16 18
34 34 34 33 32 32 31 30 28 27 25 24 23 22 21 20 19 18 16 15 14 12 10 9 7 5 4 3 3 5 7 8 9 11 12 14 15 16 16 17 17 18
35 35 34 34 33 32 31 30 28 26 25 24 23 22 21 20 18 17 16 14 13 12 10 8 6 4 3 3 4 6 7 9 10 12 13 14 15 16 17 17 18 19
36 36 35 34 33 32 31 29 28 27 26 24 23 22 21 19 18 16 15 14 12 11 8 6 5 2 2 3 5 6 8 10 11 12 13 14 15 16 17 18 19 20
36 36 35 34 33 32 30 29 28 27 26 25 23 22 20 18 17 15 14 13 11 9 7 5 3 2 3 4 6 8 9 10 12 13 14 15 16 17 18 19 20 21
36 36 35 34 33 32 30 29 28 27 26 24 22 21 19 17 16 15 13 12 10 8 6 4 2 2 4 6 8 9 10 11 13 14 15 16 17 18 18 19 20 20
37 36 36 34 33 32 30 29 28 27 26 24 22 20 18 16 15 14 13 11 9 7 4 2 2 4 5 7 9 9 10 12 14 15 16 17 17 18 18 19 19 19
38 37 36 35 34 32 31 29 28 27 25 23 22 20 18 16 15 13 12 10 8 6 3 2 3 5 6 8 9 9 11 13 15 16 17 17 17 18 18 18 18 19
38 38 37 36 34 33 31 30 28 27 25 23 22 20 18 16 14 13 11 9 7 5 3 3 4 6 7 8 9 10 12 14 15 16 17 17 18 17 18 18 18 19
37 37 37 36 35 33 32 30 28 26 25 23 21 19 18 16 14 12 10 8 6 5 4 3 5 6 7 8 9 10 13 14 15 16 17 17 18 17 18 18 17 18
37 36 36 35 34 32 31 29 27 26 25 23 21 19 17 15 13 12 10 8 6 4 4 3 4 6 6 7 8 10 12 14 15 17 18 18 18 18 19 18 17 19
36 36 35 35 34 32 30 28 27 26 24 23 21 18 16 15 13 11 10 8 7 5 3 3 4 5 6 7 8 9 11 13 15 17 18 18 18 19 20 20 20 22
Wind_Direction
214 212 209 207 208 210 209 206 204 204 205 207 207 204 200 195 195 205 209 196 183 171 157 129 104 102 111 113 112 110 138 197 288 312 305 301 293 288 286 287 298 306
206 204 204 203 202 202 202 202 200 199 198 195 192 188 187 191 193 198 200 192 187 186 183 171 146 134 122 112 102 87 88 94 82 65 54 40 30 28 1 337 334 333
199 199 199 198 197 196 196 197 196 194 191 185 184 186 185 186 186 187 192 194 192 186 182 179 169 159 141 118 103 85 80 77 70 62 58 48 32 25 17 8 4 1
192 193 193 193 194 194 192 191 187 185 185 182 181 185 186 187 188 187 185 183 178 172 169 170 167 157 142 128 116 101 87 78 73 67 62 59 51 43 36 29 23 18
183 184 186 188 189 189 187 183 180 180 182 183 183 186 188 185 181 175 166 161 155 152 148 145 141 133 126 120 110 101 93 87 83 79 76 71 64 55 45 36 31 24
182 184 184 186 185 183 183 181 181 182 183 185 183 180 178 172 166 158 150 144 139 136 132 127 124 119 113 108 102 96 93 90 85 81 77 70 61 52 43 32 24 20
183 184 183 184 182 183 184 182 183 184 182 180 173 167 164 157 150 144 139 136 132 129 126 122 119 115 108 102 97 93 89 86 82 78 71 66 58 47 37 28 19 15
178 179 180 181 181 183 183 181 180 178 174 169 160 154 151 146 141 137 134 132 129 126 123 120 115 111 106 101 96 92 89 85 79 73 65 58 50 39 30 23 14 9
176 178 179 181 181 179 177 173 170 167 164 159 151 145 142 139 136 133 132 131 128 124 120 116 111 107 103 99 95 90 86 82 74 65 57 48 40 33 24 17 11 6
177 178 179 180 177 173 169 165 161 158 156 151 144 140 139 137 134 132 131 129 125 121 116 111 106 103 99 96 93 86 79 72 63 55 49 41 35 28 20 13 8 2
175 176 177 174 170 167 163 159 155 152 149 146 142 140 139 136 134 132 131 128 122 117 113 109 104 101 99 94 87 77 67 55 48 45 41 38 32 23 17 9 3 359
173 173 172 168 164 161 156 153 151 148 146 144 143 141 138 135 134 132 130 126 121 116 113 109 105 102 98 92 83 70 58 44 36 35 32 31 26 18 12 4 359 358
169 168 166 163 159 156 153 150 149 147 146 144 144 141 138 136 135 132 129 125 121 117 113 109 105 102 95 87 78 63 50 34 23 24 20 19 17 9 6 2 355 354
165 163 161 158 155 153 151 150 148 148 147 145 144 142 139 139 137 133 130 125 121 117 113 110 106 101 96 86 74 54 37 23 11 10 7 5 7 4 0 359 354 351
161 159 157 155 154 152 151 150 150 149 147 145 144 144 141 140 137 134 131 127 122 118 114 111 108 103 96 80 58 34 20 15 5 1 360 356 358 0 358 356 354 351
159 157 156 155 154 153 152 152 151 148 146 145 145 145 143 140 138 135 131 127 123 121 118 116 113 106 94 63 31 19 9 4 358 353 355 355 354 357 358 356 355 353
159 158 157 157 156 155 154 153 151 149 148 148 147 145 143 141 139 136 131 129 127 125 125 124 120 108 87 45 16 12 2 356 353 350 353 357 356 356 357 356 354 353
161 159 158 158 158 157 156 154 152 151 151 151 149 146 144 142 140 137 133 133 133 132 132 128 122 104 59 28 7 5 359 351 349 351 354 357 358 357 357 356 354 352
162 161 159 159 158 157 156 154 154 154 153 152 149 146 146 143 141 139 137 136 137 137 136 134 126 76 24 12 2 359 355 349 348 352 357 357 357 358 355 354 354 351
164 163 161 160 159 157 157 156 156 154 152 151 149 147 146 145 143 141 140 140 141 141 140 135 107 33 10 1 2 359 348 345 350 353 356 356 355 356 353 352 353 351
165 164 162 160 160 159 158 157 157 155 152 151 150 148 148 147 146 146 145 144 143 142 138 117 47 15 6 1 2 356 343 344 351 351 352 355 354 353 352 352 353 350
167 165 163 162 161 160 159 158 157 155 154 152 151 151 151 150 151 150 148 147 145 140 124 81 34 10 6 5 1 350 341 344 348 348 351 353 353 353 352 351 351 347
169 167 165 163 162 162 160 159 158 157 155 154 154 154 153 154 156 153 149 146 143 132 104 58 30 12 6 4 358 348 342 343 346 349 352 353 353 354 352 350 350 347
171 169 167 164 164 163 162 160 159 158 156 156 156 156 156 157 157 153 146 140 133 119 89 52 22 12 7 2 357 348 342 344 347 349 353 355 355 355 352 350 349 345
172 171 169 167 165 165 164 162 161 160 158 157 157 158 158 157 154 149 142 132 124 107 78 48 14 6 4 359 356 350 344 345 348 352 357 359 356 352 350 349 347 343
172 171 170 168 167 165 164 163 162 161 159 157 158 158 157 155 150 145 140 130 120 105 70 36 9 5 4 357 354 352 349 348 353 360 1 356 352 350 349 347 344 341
Height
824 827 829 831 833 834 836 837 839 840 841 842 843 844 845 847 848 849 849 850 850 850 850 850 850 850 851 851 852 852 853 853 853 854 854 855 855 855 856 856 856 856
823 825 827 829 831 833 834 836 838 839 840 841 842 844 845 846 847 848 849 849 849 850 850 850 850 850 850 851 851 852 851 852 852 853 853 854 854 855 855 855 855 855
822 824 826 828 829 831 833 835 836 838 839 840 842 843 844 845 846 847 848 848 849 849 849 849 850 850 850 851 851 851 851 851 852 852 853 854 854 854 854 854 854 854
820 822 824 826 828 830 832 833 835 836 838 840 841 842 843 844 845 846 846 847 848 848 849 849 850 850 850 851 851 850 850 851 852 852 853 853 854 854 853 854 853 853
819 821 823 825 827 829 831 832 834 835 837 838 840 841 841 842 843 844 845 846 846 847 848 849 850 850 851 851 851 850 850 851 852 852 853 853 853 853 853 853 853 852
819 821 823 825 826 828 830 831 833 834 836 837 838 839 840 841 842 842 843 844 845 846 847 848 849 850 851 851 851 851 851 852 852 852 852 852 852 852 852 852 851 851
819 821 822 824 826 828 829 831 832 834 835 836 837 838 839 840 841 842 843 843 844 845 846 847 848 849 850 851 852 852 853 853 853 852 852 852 851 851 851 850 850 850
818 820 822 824 825 827 828 830 831 833 834 835 836 838 839 840 840 841 843 844 844 845 846 847 848 849 850 851 852 853 853 853 853 852 851 851 850 850 849 849 848 848
818 820 821 823 824 826 827 829 830 832 833 835 836 837 838 839 840 841 843 844 844 846 847 848 849 849 850 851 852 853 853 853 852 851 850 849 848 848 847 847 846 846
817 819 820 822 823 825 826 828 829 831 833 834 835 836 837 839 840 841 842 844 845 846 847 848 849 849 851 852 853 853 853 853 852 850 848 847 847 846 846 845 845 844
816 818 819 821 822 824 825 827 828 830 832 833 834 835 837 838 839 841 842 843 844 845 846 847 848 849 850 851 852 852 852 852 851 849 847 846 846 845 845 844 843 843
815 817 818 820 821 823 825 826 828 830 831 833 834 835 836 838 839 841 842 843 844 844 845 846 847 848 849 850 850 850 851 851 851 849 847 846 845 844 843 842 841 841
813 815 817 819 821 822 824 826 827 829 830 832 834 835 836 837 839 840 841 842 843 844 845 846 847 848 848 849 849 849 850 850 849 849 847 845 843 842 841 841 839 839
813 815 817 818 820 822 824 825 827 829 830 831 833 834 836 837 838 839 840 841 842 843 844 845 846 847 847 848 848 848 848 848 847 847 845 843 842 840 839 839 838 837
812 815 816 818 820 821 823 825 827 829 830 831 832 833 835 837 838 839 839 840 841 842 843 844 845 846 846 847 847 847 847 846 845 844 843 841 840 839 837 836 835 834
812 814 816 817 819 821 823 825 826 828 829 831 832 834 835 836 837 838 838 839 840 841 842 843 844 845 845 845 846 845 844 844 843 842 841 839 837 836 835 834 833 831
811 813 815 816 818 820 822 823 825 827 829 831 833 834 835 836 836 836 837 838 839 841 841 842 843 843 844 844 844 843 842 842 841 840 839 838 835 834 832 831 830 829
810 811 813 815 817 819 820 822 823 825 828 830 832 833 834 835 836 836 837 838 839 840 841 841 842 842 842 842 842 841 840 840 839 838 837 835 833 831 830 829 827 826
808 810 812 814 816 818 819 821 823 825 827 829 830 832 833 834 835 836 836 837 838 839 839 840 840 841 840 840 840 839 839 838 837 836 835 833 831 829 828 826 825 824
807 808 811 813 815 817 818 820 822 824 826 828 829 830 832 833 835 835 836 837 837 837 838 838 839 839 838 838 837 837 837 836 835 834 832 831 829 827 826 824 823 822
805 807 809 811 813 816 817 819 821 823 825 826 827 829 831 832 834 835 835 836 836 836 837 837 837 837 836 836 835 835 835 834 833 832 830 828 827 825 824 822 821 820
803 805 807 809 811 814 816 818 820 821 823 824 826 828 829 831 833 834 834 835 835 835 835 835 835 835 834 834 833 834 833 832 831 829 827 826 824 823 822 820 819 818
801 803 805 807 810 812 814 816 818 820 821 823 824 826 828 830 832 833 833 833 834 834 834 833 833 833 832 832 832 832 831 829 828 827 825 824 822 821 820 819 818 816
800 802 804 806 808 810 812 814 816 817 819 821 823 824 827 829 830 831 832 832 832 832 832 832 831 831 831 831 830 830 828 827 826 824 823 822 820 819 818 817 816 815
798 801 802 804 807 809 810 812 814 816 818 819 821 823 825 827 829 829 830 831 831 831 830 830 829 829 829 829 829 828 826 825 823 822 821 820 819 818 817 815 814 813
797 799 801 803 805 807 809 811 813 814 816 818 820 822 824 826 827 828 828 829 829 829 828 828 828 828 828 827 827 826 824 823 822 820 819 818 817 816 815 813 812 810